Change the Weather History Date:

Friday, February 28, 2014

  Actual Average (KFFO) Record (KFFO)
Temperature  
Mean Temperature 20 °F -  
Max Temperature 34 °F 42 °F 64 °F (2011)
Min Temperature 7 °F 25 °F 2 °F (2015)
Degree Days  
Heating Degree Days 44    
Moisture  
Dew Point 4 °F    
Average Humidity 51    
Maximum Humidity 73    
Minimum Humidity 29    
Precipitation  
Precipitation 0.00 in - - ()
Sea Level Pressure  
Sea Level Pressure 30.20 in    
Wind  
Wind Speed 7 mph (ESE)    
Max Wind Speed 13 mph    
Max Gust Speed -    
Visibility 10 miles    
Events      
Averages and records for this station are not official NWS values.
T = Trace of Precipitation, MM = Missing Value Source: NWS Daily Summary

Daily Weather History Graph

Daily Weather History Graph

Search for Another Location

Airport or City:

Trip Planner

Search our weather history database for the weather conditions in past years. The results will help you decide how hot, cold, wet, or windy it might be!

Date:

Astronomy

Feb. 28, 2014 Rise Set
Actual Time 7:11 AM EST 6:28 PM EST
Civil Twilight 6:44 AM EST 6:55 PM EST
Nautical Twilight 6:13 AM EST 7:26 PM EST
Astronomical Twilight 5:42 AM EST 7:57 PM EST
Moon 6:25 AM EST (2/28) 6:03 PM EST (2/28)
Length of Visible Light 12h 10m
Length of Day
11h 16m
Waning Crescent, 1% of the Moon is Illuminated
Feb 28
Waning Crescent
Mar 1
New
Mar 8
First Quarter
Mar 16
Full
Mar 23
Last Quarter

Hourly Weather History & Observations

Time (EST) Temp. Windchill Dew Point Humidity Pressure Visibility Wind Dir Wind Speed Gust Speed Precip Events Conditions
12:53 AM 8.1 °F -3.2 °F 1.0 °F 73% 30.20 in 10.0 mi NE 6.9 mph - N/A   Clear
1:53 AM 8.1 °F -3.2 °F 1.0 °F 73% 30.21 in 10.0 mi ENE 6.9 mph - N/A   Clear
2:53 AM 7.0 °F -3.3 °F -0.0 °F 73% 30.23 in 10.0 mi ENE 5.8 mph - N/A   Clear
3:53 AM 7.0 °F -3.3 °F -0.9 °F 70% 30.23 in 10.0 mi ENE 5.8 mph - N/A   Clear
4:53 AM 7.0 °F -3.3 °F -0.9 °F 70% 30.24 in 10.0 mi East 5.8 mph - N/A   Clear
5:53 AM 7.0 °F -4.5 °F -0.9 °F 70% 30.25 in 10.0 mi East 6.9 mph - N/A   Clear
6:53 AM 8.1 °F -0.5 °F -0.9 °F 67% 30.26 in 10.0 mi East 4.6 mph - N/A   Clear
7:53 AM 9.0 °F -3.2 °F -0.9 °F 64% 30.28 in 10.0 mi ESE 8.1 mph - N/A   Clear
8:53 AM 12.9 °F -0.2 °F 1.0 °F 59% 30.29 in 10.0 mi East 10.4 mph - N/A   Clear
9:53 AM 16.0 °F 2.3 °F 1.9 °F 54% 30.29 in 10.0 mi ESE 12.7 mph - N/A   Clear
10:53 AM 19.9 °F 8.6 °F 3.0 °F 48% 30.29 in 10.0 mi ESE 10.4 mph - N/A   Clear
11:53 AM 24.1 °F 13.7 °F 1.9 °F 38% 30.27 in 10.0 mi South 10.4 mph - N/A   Clear
12:53 PM 26.1 °F 18.4 °F 3.0 °F 37% 30.25 in 10.0 mi Variable 6.9 mph - N/A   Clear
1:53 PM 30.0 °F 21.7 °F 3.9 °F 33% 30.20 in 10.0 mi SE 9.2 mph - N/A   Clear
2:53 PM 30.9 °F - 3.9 °F 32% 30.19 in 10.0 mi North - - N/A   Clear
3:53 PM 33.1 °F 26.9 °F 3.9 °F 29% 30.17 in 10.0 mi South 6.9 mph - N/A   Clear
4:53 PM 34.0 °F 27.2 °F 6.1 °F 31% 30.14 in 10.0 mi SSE 8.1 mph - N/A   Unknown
5:53 PM 33.1 °F 26.1 °F 7.0 °F 34% 30.13 in 10.0 mi SE 8.1 mph - N/A   Clear
6:53 PM 30.9 °F 26.2 °F 8.1 °F 38% 30.12 in 10.0 mi ESE 4.6 mph - N/A   Clear
7:53 PM 30.0 °F 26.5 °F 8.1 °F 40% 30.12 in 10.0 mi East 3.5 mph - N/A   Clear
8:53 PM 28.9 °F 21.9 °F 9.0 °F 43% 30.12 in 10.0 mi ESE 6.9 mph - N/A   Clear
9:53 PM 28.0 °F 21.7 °F 9.0 °F 45% 30.13 in 10.0 mi East 5.8 mph - N/A   Clear
10:53 PM 27.0 °F 21.6 °F 10.0 °F 49% 30.13 in 10.0 mi ESE 4.6 mph - N/A   Clear
11:53 PM 27.0 °F 20.5 °F 8.1 °F 45% 30.11 in 10.0 mi SE 5.8 mph - N/A   Clear